Location: Gaast
(52.9002°N, 5.8891°E)
Time: 05:54:23
(UTC+00:00)

Cosmos 2278 Rocket - Pass Details

Date: 18 November 2025
Orbit: 841 x 843 km, 71.0° (Epoch: 11 December)

Event Time Altitude Azimuth Distance (km) Brightness Sun altitude
Rises 17:36:27 0° 208° (SSW) 3,387 5.9 -17.5°
Reaches altitude 10° 17:38:53 10° 208° (SSW) 2,456 5.1 -17.9°
Maximum altitude 17:44:32 87° 121° (ESE) 851 2.1 -18.8°
Enters shadow 17:48:37 20° 32° (NNE) 1,877 3.6 -19.4°
